Weather History for PASK - September, 2012

Change the Weather History Date:

Saturday, September 22, 2012

  Actual Average Record
Temperature  
Mean Temperature 40 °F -  
Max Temperature 44 °F 41 °F 57 °F (1999)
Min Temperature 37 °F 31 °F 24 °F (2003)
Degree Days  
Heating Degree Days 24    
Moisture  
Dew Point 38 °F    
Average Humidity 84    
Maximum Humidity 93    
Minimum Humidity 70    
Precipitation  
Precipitation 0.00 in - - ()
Sea Level Pressure  
Sea Level Pressure 29.44 in    
Wind  
Wind Speed 8 mph (NE)    
Max Wind Speed 16 mph    
Max Gust Speed 22 mph    
Visibility 8 miles    
Events      
Averages and records for this station are not official NWS values.
T = Trace of Precipitation, MM = Missing Value Source: NWS Daily Summary

Daily Weather History Graph

Daily Weather History Graph

Search for Another Location

Airport or City:

Trip Planner

Search our weather history database for the weather conditions in past years. The results will help you decide how hot, cold, wet, or windy it might be!

Date:

Astronomy

Sep. 22, 2012 Rise Set
Actual Time 8:24 AM AKDT 8:38 PM AKDT
Civil Twilight 7:31 AM AKDT 9:31 PM AKDT
Nautical Twilight 6:26 AM AKDT 10:35 PM AKDT
Astronomical Twilight 5:07 AM AKDT 11:52 PM AKDT
Moon 6:47 PM AKDT (9/22) 11:06 PM AKDT (9/22)
Length of Visible Light 13h 59m
Length of Day
12h 14m
Waxing Crescent, 50% of the Moon is Illuminated
Sep 22
Waxing Crescent
Sep 29
Full
Oct 7
Last Quarter
Oct 15
New
Oct 21
First Quarter

Hourly Weather History & Observations

Time (AKDT) Temp. Windchill Dew Point Humidity Pressure Visibility Wind Dir Wind Speed Gust Speed Precip Events Conditions
12:16 AM 37.4 °F 32.8 °F 33.8 °F 87% 29.78 in 10.0 mi NNE 5.8 mph - N/A   Overcast
12:36 AM 39.2 °F 34.2 °F 35.6 °F 87% 29.76 in 10.0 mi NE 6.9 mph - N/A   Mostly Cloudy
12:56 AM 39.2 °F 34.2 °F 33.8 °F 81% 29.76 in 10.0 mi NE 6.9 mph - N/A   Scattered Clouds
1:16 AM 39.2 °F 35.0 °F 35.6 °F 87% 29.76 in 10.0 mi NE 5.8 mph - N/A   Mostly Cloudy
1:36 AM 39.2 °F 34.2 °F 35.6 °F 87% 29.76 in 10.0 mi NE 6.9 mph - N/A   Overcast
1:56 AM 39.2 °F 34.2 °F 35.6 °F 87% 29.74 in 10.0 mi NNE 6.9 mph - N/A   Overcast
2:16 AM 39.2 °F 33.6 °F 35.6 °F 87% 29.73 in 10.0 mi NNE 8.1 mph - N/A   Overcast
2:36 AM 41.0 °F 35.2 °F 33.8 °F 76% 29.72 in 10.0 mi NNE 9.2 mph - N/A   Overcast
2:56 AM 41.0 °F 34.7 °F 33.8 °F 76% 29.71 in 10.0 mi NNE 10.4 mph - N/A   Overcast
3:16 AM 39.2 °F 32.5 °F 33.8 °F 81% 29.70 in 10.0 mi NNE 10.4 mph - N/A   Mostly Cloudy
3:36 AM 41.0 °F 35.2 °F 35.6 °F 81% 29.69 in 10.0 mi NNE 9.2 mph - N/A   Mostly Cloudy
3:56 AM 41.0 °F 35.8 °F 35.6 °F 81% 29.68 in 10.0 mi NNE 8.1 mph - N/A   Overcast
4:16 AM 42.8 °F 37.5 °F 35.6 °F 76% 29.67 in 10.0 mi NNE 9.2 mph - N/A   Overcast
4:36 AM 42.8 °F 37.5 °F 33.8 °F 70% 29.67 in 10.0 mi NNE 9.2 mph - N/A   Overcast
4:56 AM 42.8 °F 37.5 °F 35.6 °F 76% 29.66 in 10.0 mi NNE 9.2 mph - N/A   Overcast
5:16 AM 41.0 °F 35.2 °F 33.8 °F 76% 29.64 in 10.0 mi NNE 9.2 mph - N/A   Overcast
5:36 AM 42.8 °F 37.0 °F 33.8 °F 70% 29.62 in 10.0 mi NNE 10.4 mph - N/A   Overcast
5:56 AM 42.8 °F 36.6 °F 33.8 °F 70% 29.61 in 10.0 mi NNE 11.5 mph - N/A   Overcast
6:16 AM 41.0 °F 33.9 °F 33.8 °F 76% 29.60 in 10.0 mi NNE 12.7 mph - N/A   Overcast
6:56 AM 41.0 °F 34.7 °F 33.8 °F 76% 29.58 in 10.0 mi NNE 10.4 mph - N/A   Overcast
7:16 AM 41.0 °F 34.7 °F 35.6 °F 81% 29.57 in 10.0 mi NNE 10.4 mph - N/A   Overcast
7:36 AM 41.0 °F 34.3 °F 35.6 °F 81% 29.55 in 10.0 mi NNE 11.5 mph - N/A   Overcast
7:56 AM 41.0 °F 33.9 °F 35.6 °F 81% 29.54 in 10.0 mi NNE 12.7 mph - N/A   Overcast
8:16 AM 41.0 °F 33.9 °F 35.6 °F 81% 29.53 in 10.0 mi NNE 12.7 mph - N/A   Overcast
8:36 AM 41.0 °F 33.5 °F 35.6 °F 81% 29.51 in 10.0 mi NNE 13.8 mph - N/A   Overcast
8:56 AM 41.0 °F 33.5 °F 35.6 °F 81% 29.50 in 10.0 mi NNE 13.8 mph - N/A   Overcast
9:16 AM 41.0 °F 33.9 °F 35.6 °F 81% 29.50 in 10.0 mi NNE 12.7 mph - N/A   Overcast
9:36 AM 41.0 °F 33.9 °F 35.6 °F 81% 29.49 in 10.0 mi NNE 12.7 mph - N/A   Overcast
9:56 AM 41.0 °F 33.9 °F 35.6 °F 81% 29.47 in 10.0 mi NNE 12.7 mph 20.7 mph N/A   Overcast
10:16 AM 41.0 °F 32.8 °F 35.6 °F 81% 29.47 in 10.0 mi North 16.1 mph - N/A   Overcast
10:36 AM 41.0 °F 33.1 °F 35.6 °F 81% 29.45 in 10.0 mi NNE 15.0 mph 20.7 mph N/A   Overcast
10:56 AM 41.0 °F 33.5 °F 35.6 °F 81% 29.44 in 10.0 mi North 13.8 mph 20.7 mph N/A   Overcast
11:16 AM 41.0 °F 32.8 °F 35.6 °F 81% 29.44 in 10.0 mi North 16.1 mph 21.9 mph N/A   Overcast
11:36 AM 41.0 °F 33.9 °F 35.6 °F 81% 29.43 in 10.0 mi North 12.7 mph - N/A   Overcast
11:56 AM 41.0 °F 33.9 °F 37.4 °F 87% 29.42 in 10.0 mi North 12.7 mph - N/A   Overcast
12:16 PM 41.0 °F 33.9 °F 37.4 °F 87% 29.41 in 10.0 mi NNE 12.7 mph 17.3 mph N/A   Overcast
12:36 PM 42.8 °F 37.5 °F 37.4 °F 81% 29.40 in 10.0 mi NNE 9.2 mph - N/A   Overcast
12:56 PM 42.8 °F 36.2 °F 37.4 °F 81% 29.39 in 10.0 mi NNE 12.7 mph 18.4 mph N/A   Overcast
1:16 PM 42.8 °F 35.8 °F 37.4 °F 81% 29.39 in 10.0 mi NNE 13.8 mph - N/A   Overcast
1:36 PM 42.8 °F 37.0 °F 37.4 °F 81% 29.38 in 10.0 mi NNE 10.4 mph - N/A   Overcast
1:56 PM 42.8 °F 37.0 °F 37.4 °F 81% 29.36 in 10.0 mi NNE 10.4 mph - N/A   Overcast
2:16 PM 42.8 °F 37.5 °F 37.4 °F 81% 29.36 in 10.0 mi NNE 9.2 mph - N/A   Overcast
2:36 PM 42.8 °F 38.0 °F 37.4 °F 81% 29.35 in 10.0 mi NE 8.1 mph - N/A   Overcast
2:56 PM 42.8 °F 38.0 °F 39.2 °F 87% 29.33 in 10.0 mi NE 8.1 mph - N/A   Overcast
3:16 PM 42.8 °F 38.0 °F 39.2 °F 87% 29.33 in 10.0 mi NE 8.1 mph - N/A   Overcast
3:36 PM 42.8 °F 37.5 °F 39.2 °F 87% 29.32 in 10.0 mi NE 9.2 mph - N/A   Overcast
3:56 PM 42.8 °F 38.0 °F 39.2 °F 87% 29.30 in 8.0 mi NE 8.1 mph - N/A   Overcast
4:16 PM 44.6 °F 40.7 °F 41.0 °F 87% 29.29 in 7.0 mi ENE 6.9 mph - N/A   Overcast
4:36 PM 44.6 °F 40.2 °F 41.0 °F 87% 29.29 in 5.0 mi ENE 8.1 mph - N/A   Overcast
4:56 PM 44.6 °F 40.7 °F 41.0 °F 87% 29.28 in 7.0 mi ENE 6.9 mph - N/A   Overcast
5:16 PM 44.6 °F 41.4 °F 41.0 °F 87% 29.28 in 9.0 mi ENE 5.8 mph - N/A   Overcast
5:36 PM 44.6 °F 42.2 °F 41.0 °F 87% 29.27 in 9.0 mi NE 4.6 mph - N/A   Overcast
5:56 PM 44.6 °F 42.2 °F 42.8 °F 93% 29.26 in 7.0 mi NE 4.6 mph - N/A   Overcast
6:16 PM 44.6 °F 42.2 °F 42.8 °F 93% 29.26 in 5.0 mi ENE 4.6 mph - N/A   Overcast
6:36 PM 44.6 °F 41.4 °F 42.8 °F 93% 29.26 in 6.0 mi East 5.8 mph - N/A   Overcast
6:56 PM 44.6 °F - 42.8 °F 93% 29.26 in 8.0 mi Calm Calm - N/A   Overcast
7:16 PM 44.6 °F 41.4 °F 42.8 °F 93% 29.26 in 8.0 mi East 5.8 mph - N/A   Overcast
7:36 PM 44.6 °F 43.1 °F 41.0 °F 87% 29.26 in 0.8 mi ESE 3.5 mph - N/A   Overcast
7:56 PM 44.6 °F - 42.8 °F 93% 29.25 in 0.2 mi Calm Calm - N/A   Overcast
8:16 PM 44.6 °F 43.1 °F 41.0 °F 87% 29.24 in 1.2 mi ESE 3.5 mph - N/A   Overcast
8:36 PM 44.6 °F - 41.0 °F 87% 29.22 in 0.8 mi Calm Calm - N/A   Overcast
8:56 PM 44.6 °F 42.2 °F 41.0 °F 87% 29.24 in 0.2 mi SE 4.6 mph - N/A   Overcast
9:16 PM 42.8 °F 40.1 °F 41.0 °F 93% 29.24 in 0.5 mi SSE 4.6 mph - N/A   Overcast
9:36 PM 44.6 °F - 41.0 °F 87% 29.25 in 0.8 mi Calm Calm - N/A   Overcast
9:56 PM 42.8 °F - 41.0 °F 93% 29.25 in 1.0 mi Calm Calm - N/A   Overcast
10:16 PM 42.8 °F 40.1 °F 41.0 °F 93% 29.24 in 7.0 mi East 4.6 mph - N/A   Overcast
10:36 PM 44.6 °F 39.7 °F 42.8 °F 93% 29.24 in 10.0 mi ENE 9.2 mph - N/A   Overcast
10:56 PM 44.6 °F 39.7 °F 42.8 °F 93% 29.23 in 10.0 mi East 9.2 mph - N/A   Overcast
11:16 PM 44.6 °F 40.2 °F 42.8 °F 93% 29.23 in 10.0 mi ENE 8.1 mph - N/A   Overcast
11:36 PM 44.6 °F - 42.8 °F 93% 29.23 in 10.0 mi Calm Calm - N/A   Overcast
11:56 PM 44.6 °F 40.2 °F 42.8 °F 93% 29.24 in 10.0 mi East 8.1 mph - N/A   Overcast